Tracking 19709 objects as of 18-Jun-2019
HD Live streaming from Space Station
objects crossing your sky now

FLOCK 3K 12

Track FLOCK 3K 12 now!
10-day predictions
FLOCK 3K 12 is classified as:


NORAD ID: 43903
Int'l Code: 2018-111AD
Perigee: 484.3 km
Apogee: 515.2 km
Inclination: 97.3 °
Period: 94.5 minutes
Semi major axis: 6870 km
RCS: Unknown
Launch date: December 27, 2018
Source: United States (US)
Launch site: VOSTOCHNY COSMODROME (VOSTO)
aabbcc
Your satellite tracking list
Your tracking list is empty




NASA's NSSDC Master Catalog

Two Line Element Set (TLE):
1 43903U 18111AD  19168.75586746  .00000671  00000-0  30094-4 0  9998
2 43903  97.2903  74.0122 0022464   1.0718 359.0564 15.24398578 26307
Source of the keplerian elements: AFSPC